Theta_e
284 284 284 284 284 284 284 285 286 286 286 286 287 288 288 288 287 287 287 287 286 288
284 282 282 282 283 283 284 285 285 284 284 285 285 285 285 285 285 285 285 286 286 286
283 284 283 283 282 282 283 284 284 283 284 283 283 283 283 283 284 284 285 286 285 286
283 282 282 282 282 282 282 282 282 283 282 282 282 282 282 281 281 282 283 284 284 285
281 280 280 280 280 280 281 281 280 280 281 281 281 281 281 281 281 281 281 282 282 283
279 279 279 279 279 280 280 279 279 279 279 279 280 279 280 280 280 281 281 281 281 281
278 279 279 279 279 278 279 278 278 279 279 279 279 279 279 279 279 280 281 282 282 282
278 279 278 278 278 278 278 278 278 278 278 278 278 278 277 278 279 279 280 280 281 282
278 278 278 278 277 277 277 276 276 276 276 276 277 280 281 280 278 278 278 278 279 280
276 274 275 274 273 273 272 272 272 273 273 274 275 279 280 280 279 278 277 276 277 278
272 270 271 270 270 269 269 269 269 269 269 270 271 275 276 276 275 275 276 276 276 275
269 266 268 265 266 266 266 266 265 267 266 266 266 271 272 272 271 271 272 273 273 273
267 262 263 264 263 264 263 264 265 264 264 264 263 268 270 271 269 267 269 270 272 274
265 263 262 262 262 261 261 262 261 261 262 262 263 264 269 271 269 268 268 268 269 271
Wind_Speed
9 6 6 7 7 7 7 7 7 9 8 7 7 8 6 3 3 5 5 8 6 7
6 7 6 7 5 5 6 8 10 9 9 10 9 8 6 3 5 4 5 6 6 6
4 4 2 3 5 5 5 6 8 10 10 10 10 8 7 6 6 5 4 4 6 6
5 5 6 5 4 5 5 5 6 6 6 7 7 9 9 8 7 7 8 6 5 6
6 6 7 6 7 7 8 9 8 8 9 7 6 6 7 9 9 11 11 10 8 7
2 3 6 6 7 7 8 9 10 9 10 12 12 11 10 9 9 10 11 10 10 10
4 5 5 6 6 6 6 7 9 10 11 11 12 13 13 13 12 11 11 11 12 11
4 5 5 6 6 7 7 8 9 11 12 12 12 10 12 13 13 14 16 14 12 11
6 9 9 9 9 10 11 12 13 14 14 15 11 22 26 22 15 16 16 17 17 15
6 6 8 10 13 14 15 15 15 15 15 16 16 26 28 29 16 16 16 17 17 16
5 6 10 11 12 13 12 14 15 16 16 17 15 28 30 30 20 17 18 17 18 18
4 5 8 9 12 12 13 13 14 14 16 16 16 26 28 26 16 17 19 18 19 19
5 3 8 10 11 11 11 14 12 15 14 17 16 23 27 23 12 15 14 16 17 25
6 8 9 10 9 11 12 13 13 14 13 14 15 16 25 26 14 12 13 13 13 12
Wind_Direction
38 40 34 28 23 13 6 2 358 1 359 354 -0 359 355 349 309 295 276 267 254 260
43 29 23 16 16 17 8 1 357 359 358 353 352 355 352 343 324 322 280 272 273 263
54 49 30 26 358 1 347 347 353 351 345 345 346 345 348 338 323 312 285 275 268 270
22 9 359 1 335 354 349 343 334 324 309 312 324 328 332 330 312 317 307 295 270 270
352 342 341 342 340 342 333 330 330 328 319 306 290 284 292 304 313 313 307 304 302 286
275 306 324 323 321 327 324 321 317 317 312 311 314 316 309 293 279 280 286 288 291 289
307 312 314 312 308 297 288 290 294 294 295 294 296 297 302 301 297 288 278 274 273 277
292 285 293 298 295 293 292 293 287 292 294 295 291 293 301 294 291 292 293 286 277 268
349 349 342 340 336 327 318 315 310 303 301 297 290 293 296 298 294 293 291 290 289 284
357 359 349 337 328 322 318 315 308 305 303 298 296 300 300 298 293 290 284 284 285 284
17 343 327 320 315 311 307 307 306 305 305 299 300 308 309 307 299 292 284 279 278 278
347 314 314 304 302 303 302 299 299 297 302 302 303 308 306 305 296 286 283 282 280 277
314 291 300 298 298 293 290 291 296 296 296 296 297 302 301 300 290 286 286 282 280 276
308 300 291 287 288 291 291 290 291 290 291 289 287 287 293 296 292 290 287 283 284 285